Cedar City, UT

7:20 AM MDT on May 23, 2017 (GMT -0600)
Cedar City Regional

Weather History for KCDC - April, 2014

Change the Weather History Date:

Friday, April 25, 2014

  Actual Average Record
Temperature  
Mean Temperature 59 °F 49 °F  
Max Temperature 70 °F 64 °F 77 °F (1953)
Min Temperature 47 °F 34 °F 18 °F (2008)
Degree Days  
Heating Degree Days 6 16  
Month to date heating degree days 390 479  
Since 1 July heating degree days 5707 5813  
Cooling Degree Days 0 0  
Month to date cooling degree days 0 0  
Year to date cooling degree days 0 0  
Growing Degree Days 8 (Base 50)    
Moisture  
Dew Point 16 °F    
Average Humidity 17    
Maximum Humidity 19    
Minimum Humidity 14    
Precipitation  
Precipitation 0.00 in 0.03 in 0.28 in (1985)
Month to date precipitation T 0.91  
Year to date precipitation 1.36 4.12  
Sea Level Pressure  
Sea Level Pressure 29.61 in    
Wind  
Wind Speed 18 mph (SSW)    
Max Wind Speed 39 mph    
Max Gust Speed 52 mph    
Visibility 10 miles    
Events      
T = Trace of Precipitation, MM = Missing Value Source: NWS Daily Summary

Daily Weather History Graph

Daily Weather History Graph

Search for Another Location

Airport or City:

Trip Planner

Search our weather history database for the weather conditions in past years. The results will help you decide how hot, cold, wet, or windy it might be!

Date:

Astronomy

Apr. 25, 2014 Rise Set
Actual Time 6:43 AM MDT 8:17 PM MDT
Civil Twilight 6:16 AM MDT 8:45 PM MDT
Nautical Twilight 5:42 AM MDT 9:18 PM MDT
Astronomical Twilight 5:07 AM MDT 9:53 PM MDT
Moon 4:29 AM MDT (4/25) 4:47 PM MDT (4/25)
Length of Visible Light 14h 28m
Length of Day
13h 33m
Waning Crescent, 15% of the Moon is Illuminated
Apr 25
Waning Crescent
Apr 29
New
May 6
First Quarter
May 14
Full
May 21
Last Quarter

Hourly Weather History & Observations

Time (MDT) Temp. Dew Point Humidity Pressure Visibility Wind Dir Wind Speed Gust Speed Precip Events Conditions
12:53 AM 50.0 °F 7.0 °F 18% 29.78 in 10.0 mi Variable 4.6 mph - N/A   Clear
1:53 AM 48.0 °F 9.0 °F 21% 29.75 in 10.0 mi Calm Calm - N/A   Clear
2:53 AM 48.9 °F 7.0 °F 18% 29.73 in 10.0 mi South 6.9 mph - N/A   Clear
3:53 AM 48.9 °F 6.1 °F 18% 29.73 in 10.0 mi South 6.9 mph - N/A   Clear
4:53 AM 50.0 °F 6.1 °F 17% 29.70 in 10.0 mi SSW 5.8 mph - N/A   Clear
5:53 AM 52.0 °F 8.1 °F 17% 29.68 in 10.0 mi South 10.4 mph - N/A   Clear
6:53 AM 50.0 °F 7.0 °F 18% 29.68 in 10.0 mi SSW 11.5 mph - N/A   Clear
7:53 AM 55.0 °F 8.1 °F 15% 29.68 in 10.0 mi SSW 13.8 mph 24.2 mph N/A   Clear
8:53 AM 59.0 °F 10.9 °F 15% 29.68 in 10.0 mi South 24.2 mph 33.4 mph N/A   Clear
9:53 AM 59.0 °F 12.9 °F 16% 29.66 in 10.0 mi SSW 23.0 mph 35.7 mph N/A   Clear
10:53 AM 62.1 °F 12.9 °F 15% 29.66 in 10.0 mi South 25.3 mph 33.4 mph N/A   Clear
11:53 AM 64.0 °F 15.1 °F 15% 29.66 in 10.0 mi South 23.0 mph 36.8 mph N/A   Clear
12:53 PM 66.0 °F 19.0 °F 17% 29.61 in 10.0 mi South 27.6 mph 42.6 mph N/A   Clear
1:53 PM 68.0 °F 18.0 °F 15% 29.56 in 10.0 mi South 29.9 mph 44.9 mph N/A   Clear
2:53 PM 68.0 °F 21.9 °F 17% 29.54 in 10.0 mi SSW 31.1 mph 43.7 mph N/A   Clear
3:53 PM 66.0 °F 21.0 °F 18% 29.53 in 10.0 mi SSW 24.2 mph 46.0 mph N/A   Clear
4:53 PM 66.0 °F 19.0 °F 17% 29.51 in 10.0 mi SW 28.8 mph 50.6 mph N/A   Partly Cloudy
5:53 PM 62.1 °F 23.0 °F 22% 29.53 in 10.0 mi SW 26.5 mph 43.7 mph N/A   Partly Cloudy
6:53 PM 60.1 °F 24.1 °F 25% 29.53 in 10.0 mi SSW 21.9 mph 38.0 mph N/A   Scattered Clouds
7:53 PM 57.9 °F 25.0 °F 28% 29.52 in 10.0 mi SSW 21.9 mph 29.9 mph N/A   Clear
8:53 PM 57.0 °F 25.0 °F 29% 29.51 in 10.0 mi SSW 13.8 mph 24.2 mph N/A   Scattered Clouds
9:53 PM 55.0 °F 25.0 °F 31% 29.51 in 10.0 mi SSW 13.8 mph - N/A   Clear
10:53 PM 55.9 °F 26.1 °F 32% 29.47 in 10.0 mi South 29.9 mph 43.7 mph N/A   Clear
11:53 PM 54.0 °F 28.0 °F 37% 29.45 in 10.0 mi South 11.5 mph - 0.00 in   Overcast